Location: Columbia, SC
(34.0000°N, 81.0300°W)
Time: 17:45:40
(UTC-04:00)

Tiangong 1 - Visible Passes

Search period start: 25 March 2017 00:00
Search period end: 04 April 2017 00:00
Orbit: 334 x 358 km, 42.8° (Epoch: 24 March)

Date Brightness Start Highest point End Pass type
(mag) Time Alt. Az. Time Alt. Az. Time Alt. Az.
25 Mar 0.8 21:00:01 10° WNW 21:02:56 70° NNE 21:03:00 70° NE visible
26 Mar 2.7 21:23:55 10° WNW 21:25:52 28° WSW 21:25:52 28° WSW visible
27 Mar 0.8 20:11:34 10° WNW 20:14:30 83° NNE 20:17:20 11° ESE visible
28 Mar 2.6 20:35:26 10° W 20:38:01 28° SW 20:40:16 12° SSE visible
